Weather History for Corpus Christi, TX

Change the Weather History Date:

Monday, July 21, 2014

  Actual Average Record
Temperature  
Mean Temperature 87 °F 84 °F  
Max Temperature 96 °F 94 °F 100 °F (2012)
Min Temperature 78 °F 75 °F 68 °F (2008)
Degree Days  
Heating Degree Days 0 0  
Month to date heating degree days 0 0  
Since 1 June heating degree days 0 0  
Since 1 July heating degree days 0 0  
Cooling Degree Days 22 19  
Month to date cooling degree days 407 395  
Year to date cooling degree days 1820 1758  
Since 1 June cooling degree days 1014 917  
Growing Degree Days 37 (Base 50)    
Moisture  
Dew Point 76 °F    
Average Humidity 71    
Maximum Humidity 94    
Minimum Humidity 48    
Precipitation  
Precipitation 0.00 in 0.06 in 1.59 in (1916)
Month to date precipitation 0.67 2.17  
Year to date precipitation 9.18 15.80  
Snow  
Snow 0.00 in - - ()
Month to date snowfall 0.0  
Since 1 June snowfall 0.0  
Since 1 July snowfall 0.0  
Snow Depth 0.00 in    
Sea Level Pressure  
Sea Level Pressure 29.96 in    
Wind  
Wind Speed 13 mph (SSE)    
Max Wind Speed 24 mph    
Max Gust Speed 32 mph    
Visibility 9 miles    
Events      
T = Trace of Precipitation, MM = Missing Value Source: NWS Daily Summary

Daily Weather History Graph

Daily Weather History Graph

Search for Another Location

Airport:

Trip Planner

Search our weather history database for the weather conditions in past years. The results will help you decide how hot, cold, wet, or windy it might be!

Date:

Astronomy

Jul. 21, 2014 Rise Set
Actual Time 6:47 AM CDT 8:25 PM CDT
Civil Twilight 6:21 AM CDT 8:51 PM CDT
Nautical Twilight 5:50 AM CDT 9:22 PM CDT
Astronomical Twilight 5:17 AM CDT 9:54 PM CDT
Moon 2:32 AM CDT (7/21) 4:13 PM CDT (7/21)
Length of Visible Light 14h 30m
Length of Day
13h 38m
Waning Crescent, 24% of the Moon is Illuminated
Jul 21
Waning Crescent
Jul 26
New
Aug 3
First Quarter
Aug 10
Full
Aug 17
Last Quarter

Hourly Weather History & Observations

Time (CDT) Temp. Heat Index Dew Point Humidity Pressure Visibility Wind Dir Wind Speed Gust Speed Precip Events Conditions
12:49 AM 80.6 °F 87.1 °F 77.0 °F 89% 29.95 in 10.0 mi SSE 8.1 mph - N/A   Mostly Cloudy
12:51 AM 81.0 °F 87.9 °F 77.0 °F 88% 29.95 in 10.0 mi SSE 6.9 mph - N/A   Mostly Cloudy
1:47 AM 80.6 °F 87.1 °F 77.0 °F 89% 29.95 in 10.0 mi SSE 8.1 mph - N/A   Overcast
1:51 AM 80.1 °F 85.8 °F 77.0 °F 90% 29.94 in 10.0 mi SSE 9.2 mph - N/A   Overcast
2:30 AM 80.1 °F 85.8 °F 77.0 °F 90% 29.94 in 10.0 mi SSE 8.1 mph - N/A   Overcast
2:51 AM 81.0 °F 87.9 °F 77.0 °F 88% 29.94 in 10.0 mi SSE 8.1 mph - N/A   Overcast
3:51 AM 80.1 °F 85.8 °F 77.0 °F 90% 29.94 in 10.0 mi South 5.8 mph - N/A   Overcast
4:51 AM 80.1 °F 85.8 °F 77.0 °F 90% 29.94 in 10.0 mi SE 4.6 mph - N/A   Overcast
5:08 AM 80.1 °F 85.8 °F 77.0 °F 90% 29.95 in 10.0 mi SE 4.6 mph - N/A   Overcast
5:51 AM 80.1 °F 85.8 °F 77.0 °F 90% 29.95 in 10.0 mi South 3.5 mph - N/A   Overcast
6:18 AM 79.0 °F - 77.0 °F 94% 29.96 in 8.0 mi Calm Calm - N/A   Mostly Cloudy
6:43 AM 79.0 °F - 75.9 °F 90% 29.96 in 6.0 mi SSE 4.6 mph - N/A   Mostly Cloudy
6:51 AM 78.1 °F - 75.9 °F 93% 29.96 in 5.0 mi SSE 4.6 mph - N/A   Scattered Clouds
7:51 AM 80.1 °F 86.4 °F 78.1 °F 94% 29.97 in 5.0 mi SE 8.1 mph - N/A   Scattered Clouds
8:36 AM 82.9 °F 92.8 °F 78.1 °F 85% 29.99 in 7.0 mi SE 10.4 mph - N/A   Mostly Cloudy
8:51 AM 84.0 °F 94.8 °F 78.1 °F 82% 29.99 in 8.0 mi SSE 13.8 mph - N/A   Mostly Cloudy
9:05 AM 84.9 °F 95.3 °F 77.0 °F 77% 29.99 in 9.0 mi SE 17.3 mph - N/A   Scattered Clouds
9:51 AM 87.1 °F 97.3 °F 75.9 °F 69% 29.99 in 10.0 mi SSE 16.1 mph - N/A   Scattered Clouds
10:51 AM 91.0 °F 102.9 °F 75.9 °F 61% 30.00 in 10.0 mi SSE 15.0 mph - N/A   Scattered Clouds
11:51 AM 93.0 °F 104.6 °F 75.0 °F 56% 30.00 in 10.0 mi SSE 15.0 mph 25.3 mph N/A   Scattered Clouds
12:51 PM 95.0 °F 106.7 °F 75.0 °F 52% 29.99 in 10.0 mi SE 16.1 mph 26.5 mph N/A   Scattered Clouds
1:51 PM 95.0 °F 104.5 °F 73.4 °F 49% 29.98 in 10.0 mi SE 18.4 mph 25.3 mph N/A   Scattered Clouds
2:51 PM 96.1 °F 105.6 °F 73.0 °F 47% 29.97 in 10.0 mi SSE 21.9 mph 27.6 mph N/A   Scattered Clouds
3:51 PM 95.0 °F 104.5 °F 73.0 °F 49% 29.95 in 10.0 mi SE 20.7 mph 29.9 mph N/A   Partly Cloudy
4:51 PM 93.9 °F 103.4 °F 73.0 °F 51% 29.94 in 10.0 mi SE 18.4 mph - N/A   Partly Cloudy
5:51 PM 91.0 °F 100.4 °F 73.9 °F 57% 29.94 in 10.0 mi SE 19.6 mph - N/A   Partly Cloudy
6:51 PM 89.1 °F 98.0 °F 73.9 °F 61% 29.94 in 10.0 mi SE 20.7 mph - N/A   Partly Cloudy
7:51 PM 86.0 °F 95.1 °F 75.0 °F 70% 29.94 in 10.0 mi SSE 18.4 mph - N/A   Partly Cloudy
9:51 PM 82.0 °F 89.4 °F 75.9 °F 82% 29.98 in 10.0 mi SSE 10.4 mph - N/A   Partly Cloudy
10:51 PM 81.0 °F 87.3 °F 75.9 °F 85% 29.98 in 10.0 mi SSE 9.2 mph - N/A   Partly Cloudy
11:51 PM 79.0 °F - 75.9 °F 90% 29.98 in 10.0 mi SSE 8.1 mph - N/A   Partly Cloudy